Terminal Aerodrome Forecast
Issued by NWS Buffalo, NY

Home | Current Version | Previous Version | Text Only | Print | Product List | Glossary On
Versions: 1 2 3 4 5 6 7 8 9 10 11 12 13 14 15 16 17 18 19 20 21 22 23 24
618
FTUS41 KBUF 062120 AAB
TAFROC
TAF AMD
KROC 062120Z 0621/0718 07012G20KT 6SM -SHRA OVC080
     FM062300 04007KT P6SM OVC040
     FM070200 VRB03KT P6SM BKN025
     FM070700 17004KT P6SM BKN060
     FM071100 17005KT P6SM SCT010=

USA.gov is the U.S. government's official web portal to all federal, state and local government web resources and services.